Location: Brunsen
(51.8651°N, 9.8610°E)
Time: 17:39:54
(UTC+00:00)

Cosmos 2082 Rocket - Pass Details

Date: 23 May 2024
Orbit: 832 x 853 km, 71.0° (Epoch: 23 June)

Event Time Altitude Azimuth Distance (km) Brightness Sun altitude
Exits shadow 00:06:46 27° 183° (S) 1,592 3.0 -16.7°
Maximum altitude 00:09:51 60° 114° (ESE) 977 2.4 -16.6°
Drops below altitude 10° 00:15:28 10° 36° (NE) 2,492 5.7 -16.4°
Sets 00:17:57 0° 33° (NNE) 3,431 6.8 -16.3°
